Location: Newark
(45.4422°N, 16.2769°E)
Time: 01:07:03
(UTC+00:00)

Courier 1B Rocket - All Passes

Search period start: 06 December 2019 00:00
Search period end: 16 December 2019 00:00
Orbit: 920 x 1202 km, 28.2° (Epoch: 05 December)

Date Brightness Start Highest point End Pass type
(mag) Time Alt. Az. Time Alt. Az. Time Alt. Az.
06 Dec - 06:47:16 10° S 06:48:55 11° SSE 06:50:32 10° SSE daylight
06 Dec - 08:37:31 10° SSW 08:41:05 16° S 08:44:37 10° SE daylight
06 Dec - 10:30:42 10° SW 10:33:15 13° SSW 10:35:49 10° SSE daylight
07 Dec - 07:37:00 10° SSW 07:40:27 15° S 07:43:50 10° SE daylight
07 Dec - 09:29:25 10° SW 09:32:38 14° S 09:35:51 10° SSE daylight
08 Dec - 06:36:43 10° SSW 06:39:48 14° S 06:42:50 10° SE daylight
08 Dec - 08:28:26 10° SW 08:32:01 16° S 08:35:33 10° SSE daylight
09 Dec - 05:36:50 10° S 05:39:09 12° SSE 05:41:26 10° SE visible
09 Dec - 07:27:36 10° SW 07:31:23 16° S 07:35:03 10° SE daylight
09 Dec - 09:21:02 10° SW 09:23:33 13° SSW 09:26:03 10° S daylight
10 Dec - 06:26:56 10° SSW 06:30:43 16° S 06:34:23 10° SE daylight
10 Dec - 08:19:35 10° SW 08:22:56 15° S 08:26:14 10° SSE daylight
11 Dec - 05:26:28 10° SSW 05:30:02 15° S 05:33:29 10° SE visible
11 Dec - 07:18:27 10° SW 07:22:18 16° S 07:26:02 10° SSE daylight
11 Dec - 09:14:16 10° SSW 09:14:25 10° SSW 09:14:34 10° SSW daylight
12 Dec - 04:26:20 10° SSW 04:29:20 13° SSE 04:32:16 10° SE visible
12 Dec - 06:17:30 10° SW 06:21:37 17° S 06:25:37 10° SE daylight
12 Dec - 08:11:05 10° SW 08:13:50 13° SSW 08:16:31 10° S daylight
13 Dec - 03:26:59 10° S 03:28:37 11° SSE 03:30:15 10° SSE visible
13 Dec - 05:16:42 10° SSW 05:20:55 17° S 05:24:59 10° SE visible
13 Dec - 07:09:32 10° SW 07:13:11 15° S 07:16:45 10° SSE daylight
14 Dec - 04:16:06 10° SSW 04:20:11 16° S 04:24:08 10° SE visible
14 Dec - 06:08:18 10° SW 06:12:31 17° S 06:16:36 10° SSE daylight
14 Dec - 08:03:32 10° SSW 08:04:40 10° SSW 08:05:48 10° S daylight
15 Dec - 03:15:48 10° SSW 03:19:26 14° SSE 03:22:58 10° SE visible
15 Dec - 05:07:15 10° SW 05:11:47 18° S 05:16:10 10° SE visible
15 Dec - 07:00:55 10° SW 07:04:03 14° SSW 07:07:07 10° SSE daylight
